Location: Home
(42.5358°N, 72.7383°W)
Time: 12:36:32
(UTC-05:00)

A-11 Canister half - Pass Details

Date: 02 December 2021
Orbit: 1516 x 1684 km, 47.2° (Epoch: 26 January)

Event Time Altitude Azimuth Distance (km) Brightness Sun altitude
Rises 08:55:02 0° 259° (W) 4,796 11.3 15.0°
Reaches altitude 10° 08:58:06 10° 261° (W) 3,834 10.8 15.4°
Maximum altitude 09:07:58 74° 347° (NNW) 1,712 9.4 16.5°
Drops below altitude 10° 09:18:08 10° 72° (ENE) 3,943 11.4 17.6°
Sets 09:21:21 0° 75° (ENE) 4,938 11.9 17.9°
